This is the latest recevied weather packets stored in our database for station/object K7NDG. If no packets are shown the sender has not sent any weather packets the latest 10 day(s).
| Time | Temp. | Humidity | Pressure | Rain* | Wind** | Luminosity | Snow |
|---|---|---|---|---|---|---|---|
| 1777582091 | 25° C | 47% | 1018.6 hPa | 0 mm | - | 344 W/m² | - |
| 1777581785 | 24.44° C | 50% | 1018.7 hPa | 0 mm | - | 369 W/m² | - |
| 1777581484 | 23.89° C | 49% | 1018.7 hPa | 0 mm | - | 856 W/m² | - |
| 1777581179 | 23.89° C | 47% | 1018.9 hPa | 0 mm | - | 395 W/m² | - |
| 1777580874 | 23.89° C | 50% | 1018.9 hPa | 0 mm | - | 327 W/m² | - |
| 1777580569 | 23.89° C | 49% | 1019 hPa | 0 mm | - | 475 W/m² | - |
| 1777580265 | 23.33° C | 54% | 1019 hPa | 0 mm | - | 725 W/m² | - |
| 1777579962 | 23.33° C | 51% | 1019 hPa | 0 mm | - | 433 W/m² | - |
| 1777579657 | 23.33° C | 53% | 1018.9 hPa | 0 mm | - | 267 W/m² | - |
| 1777579356 | 23.89° C | 53% | 1019.3 hPa | 0 mm | - | 313 W/m² | - |
| 1777579052 | 23.89° C | 53% | 1019 hPa | 0 mm | - | 495 W/m² | - |
| 1777578747 | 23.33° C | 56% | 1019.3 hPa | 0 mm | - | 552 W/m² | - |
| 1777578447 | 22.22° C | 57% | 1019.5 hPa | 0 mm | - | 642 W/m² | - |
| 1777578143 | 22.78° C | 55% | 1019.4 hPa | 0 mm | - | 325 W/m² | - |
| 1777577839 | 22.78° C | 54% | 1019.5 hPa | 0 mm | - | 372 W/m² | - |
| 1777577534 | 22.78° C | 58% | 1019.5 hPa | 0 mm | - | 481 W/m² | - |
| 1777577232 | 22.22° C | 56% | 1019.4 hPa | 0 mm | - | 555 W/m² | - |
| 1777576927 | 22.22° C | 57% | 1019.5 hPa | 0 mm | - | 599 W/m² | - |
| 1777576623 | 22.22° C | 57% | 1019.6 hPa | 0 mm | - | 360 W/m² | - |
| 1777576318 | 21.67° C | 59% | 1019.8 hPa | 0 mm | - | 272 W/m² | - |
| 1777576014 | 21.11° C | 61% | 1019.9 hPa | 0 mm | - | 299 W/m² | - |
| 1777575711 | 20.56° C | 61% | 1019.9 hPa | 0 mm | - | 292 W/m² | - |
| 1777575407 | 20.56° C | 62% | 1019.7 hPa | 0 mm | - | 296 W/m² | - |
| 1777575103 | 20.56° C | 60% | 1019.8 hPa | 0 mm | - | 279 W/m² | - |
| 1777574798 | 20.56° C | 59% | 1020 hPa | 0 mm | - | 279 W/m² | - |
* Rain latest hour (hover to see other rain measurements)
** Current wind speed in m/s (hover to see current wind gust speed)